Year,Month,Day,Hour,Minute,Value (Times are PST for temperature in C)
2016,08,13,00,00,20.20
2016,08,13,00,01,20.10
2016,08,13,00,02,20.10
2016,08,13,00,03,20.10
2016,08,13,00,04,20.00
2016,08,13,00,05,20.00
2016,08,13,00,06,20.00
2016,08,13,00,07,19.90
2016,08,13,00,08,19.90
2016,08,13,00,09,19.90
2016,08,13,00,10,19.80
2016,08,13,00,11,19.80
2016,08,13,00,12,19.80
2016,08,13,00,13,19.80
2016,08,13,00,14,19.80
2016,08,13,00,15,19.70
2016,08,13,00,16,19.70
2016,08,13,00,17,19.70
2016,08,13,00,18,19.70
2016,08,13,00,19,19.70
2016,08,13,00,20,19.60
2016,08,13,00,21,19.60
2016,08,13,00,22,19.60
2016,08,13,00,23,19.60
2016,08,13,00,24,19.60
2016,08,13,00,25,19.60
2016,08,13,00,26,19.50
2016,08,13,00,27,19.50
2016,08,13,00,28,19.50
2016,08,13,00,29,19.50
2016,08,13,00,30,19.50
2016,08,13,00,31,19.50
2016,08,13,00,32,19.50
2016,08,13,00,33,19.50
2016,08,13,00,34,19.50
2016,08,13,00,35,19.40
2016,08,13,00,36,19.40
2016,08,13,00,37,19.40
2016,08,13,00,38,19.30
2016,08,13,00,39,19.30
2016,08,13,00,40,19.20
2016,08,13,00,41,19.20
2016,08,13,00,42,19.10
2016,08,13,00,43,19.10
2016,08,13,00,44,19.00
2016,08,13,00,45,19.00
2016,08,13,00,46,18.90
2016,08,13,00,47,18.90
2016,08,13,00,48,18.90
2016,08,13,00,49,18.90
2016,08,13,00,50,18.80
2016,08,13,00,51,18.80
2016,08,13,00,52,18.80
2016,08,13,00,53,18.80
2016,08,13,00,54,18.80
2016,08,13,00,55,18.80
2016,08,13,00,56,18.80
2016,08,13,00,57,18.80
2016,08,13,00,58,18.80
2016,08,13,00,59,18.80
2016,08,13,01,00,18.80
2016,08,13,01,01,18.80
2016,08,13,01,02,18.80
2016,08,13,01,03,18.70
2016,08,13,01,04,18.70
2016,08,13,01,05,18.70
2016,08,13,01,06,18.70
2016,08,13,01,07,18.70
2016,08,13,01,08,18.70
2016,08,13,01,09,18.60
2016,08,13,01,10,18.60
2016,08,13,01,11,18.60
2016,08,13,01,12,18.60
2016,08,13,01,13,18.60
2016,08,13,01,14,18.60
2016,08,13,01,15,18.60
2016,08,13,01,16,18.60
2016,08,13,01,17,18.60
2016,08,13,01,18,18.60
2016,08,13,01,19,18.60
2016,08,13,01,20,18.60
2016,08,13,01,21,18.60
2016,08,13,01,22,18.60
2016,08,13,01,23,18.60
2016,08,13,01,24,18.60
2016,08,13,01,25,18.60
2016,08,13,01,26,18.60
2016,08,13,01,27,18.70
2016,08,13,01,28,18.60
2016,08,13,01,29,18.60
2016,08,13,01,30,18.60
2016,08,13,01,31,18.60
2016,08,13,01,32,18.60
2016,08,13,01,33,18.60
2016,08,13,01,34,18.60
2016,08,13,01,35,18.60
2016,08,13,01,36,18.60
2016,08,13,01,37,18.60
2016,08,13,01,38,18.60
2016,08,13,01,39,18.50
2016,08,13,01,40,18.50
2016,08,13,01,41,18.50
2016,08,13,01,42,18.50
2016,08,13,01,43,18.50
2016,08,13,01,44,18.50
2016,08,13,01,45,18.50
2016,08,13,01,46,18.50
2016,08,13,01,47,18.50
2016,08,13,01,48,18.50
2016,08,13,01,49,18.40
2016,08,13,01,50,18.40
2016,08,13,01,51,18.50
2016,08,13,01,52,18.50
2016,08,13,01,53,18.60
2016,08,13,01,54,18.60
2016,08,13,01,55,18.60
2016,08,13,01,56,18.60
2016,08,13,01,57,18.60
2016,08,13,01,58,18.60
2016,08,13,01,59,18.50
2016,08,13,02,00,18.50
2016,08,13,02,01,18.50
2016,08,13,02,02,18.50
2016,08,13,02,03,18.50
2016,08,13,02,04,18.50
2016,08,13,02,05,18.50
2016,08,13,02,06,18.50
2016,08,13,02,07,18.40
2016,08,13,02,08,18.40
2016,08,13,02,09,18.40
2016,08,13,02,10,18.40
2016,08,13,02,11,18.40
2016,08,13,02,12,18.40
2016,08,13,02,13,18.40
2016,08,13,02,14,18.40
2016,08,13,02,15,18.40
2016,08,13,02,16,18.30
2016,08,13,02,17,18.30
2016,08,13,02,18,18.30
2016,08,13,02,19,18.30
2016,08,13,02,20,18.30
2016,08,13,02,21,18.30
2016,08,13,02,22,18.30
2016,08,13,02,23,18.30
2016,08,13,02,24,18.30
2016,08,13,02,25,18.30
2016,08,13,02,26,18.30
2016,08,13,02,27,18.20
2016,08,13,02,28,18.20
2016,08,13,02,29,18.20
2016,08,13,02,30,18.20
2016,08,13,02,31,18.20
2016,08,13,02,32,18.20
2016,08,13,02,33,18.20
2016,08,13,02,34,18.20
2016,08,13,02,35,18.20
2016,08,13,02,36,18.20
2016,08,13,02,37,18.20
2016,08,13,02,38,18.20
2016,08,13,02,39,18.20
2016,08,13,02,40,18.20
2016,08,13,02,41,18.20
2016,08,13,02,42,18.20
2016,08,13,02,43,18.20
2016,08,13,02,44,18.20
2016,08,13,02,45,18.20
2016,08,13,02,46,18.20
2016,08,13,02,47,18.20
2016,08,13,02,48,18.20
2016,08,13,02,49,18.20
2016,08,13,02,50,18.20
2016,08,13,02,51,18.20
2016,08,13,02,52,18.20
2016,08,13,02,53,18.10
2016,08,13,02,54,18.10
2016,08,13,02,55,18.10
2016,08,13,02,56,18.10
2016,08,13,02,57,18.10
2016,08,13,02,58,18.10
2016,08,13,02,59,18.10
2016,08,13,03,00,18.10
2016,08,13,03,01,18.10
2016,08,13,03,02,18.10
2016,08,13,03,03,18.10
2016,08,13,03,04,18.10
2016,08,13,03,05,18.10
2016,08,13,03,06,18.10
2016,08,13,03,07,18.10
2016,08,13,03,08,18.10
2016,08,13,03,09,18.10
2016,08,13,03,10,18.10
2016,08,13,03,11,18.10
2016,08,13,03,12,18.10
2016,08,13,03,13,18.20
2016,08,13,03,14,18.20
2016,08,13,03,15,18.20
2016,08,13,03,16,18.10
2016,08,13,03,17,18.20
2016,08,13,03,18,18.20
2016,08,13,03,19,18.20
2016,08,13,03,20,18.10
2016,08,13,03,21,18.20
2016,08,13,03,22,18.10
2016,08,13,03,23,18.10
2016,08,13,03,24,18.10
2016,08,13,03,25,18.10
2016,08,13,03,26,18.10
2016,08,13,03,27,18.10
2016,08,13,03,28,18.10
2016,08,13,03,29,18.10
2016,08,13,03,30,18.10
2016,08,13,03,31,18.10
2016,08,13,03,32,18.10
2016,08,13,03,33,18.10
2016,08,13,03,34,18.10
2016,08,13,03,35,18.10
2016,08,13,03,36,18.10
2016,08,13,03,37,18.10
2016,08,13,03,38,18.10
2016,08,13,03,39,18.00
2016,08,13,03,40,18.00
2016,08,13,03,41,18.00
2016,08,13,03,42,18.00
2016,08,13,03,43,18.00
2016,08,13,03,44,18.00
2016,08,13,03,45,18.00
2016,08,13,03,46,18.00
2016,08,13,03,47,18.00
2016,08,13,03,48,18.00
2016,08,13,03,49,18.00
2016,08,13,03,50,18.00
2016,08,13,03,51,18.00
2016,08,13,03,52,18.00
2016,08,13,03,53,18.10
2016,08,13,03,54,18.10
2016,08,13,03,55,18.00
2016,08,13,03,56,18.00
2016,08,13,03,57,18.00
2016,08,13,03,58,18.00
2016,08,13,03,59,18.00
2016,08,13,04,00,18.00
2016,08,13,04,01,18.00
2016,08,13,04,02,18.00
2016,08,13,04,03,17.90
2016,08,13,04,04,17.90
2016,08,13,04,05,17.90
2016,08,13,04,06,17.90
2016,08,13,04,07,17.90
2016,08,13,04,08,17.90
2016,08,13,04,09,17.90
2016,08,13,04,10,17.90
2016,08,13,04,11,17.90
2016,08,13,04,12,17.90
2016,08,13,04,13,17.90
2016,08,13,04,14,17.90
2016,08,13,04,15,17.80
2016,08,13,04,16,17.80
2016,08,13,04,17,17.80
2016,08,13,04,18,17.80
2016,08,13,04,19,17.80
2016,08,13,04,20,17.70
2016,08,13,04,21,17.70
2016,08,13,04,22,17.70
2016,08,13,04,23,17.70
2016,08,13,04,24,17.70
2016,08,13,04,25,17.60
2016,08,13,04,26,17.60
2016,08,13,04,27,17.60
2016,08,13,04,28,17.60
2016,08,13,04,29,17.60
2016,08,13,04,30,17.60
2016,08,13,04,31,17.60
2016,08,13,04,32,17.60
2016,08,13,04,33,17.60
2016,08,13,04,34,17.60
2016,08,13,04,35,17.60
2016,08,13,04,36,17.60
2016,08,13,04,37,17.50
2016,08,13,04,38,17.50
2016,08,13,04,39,17.50
2016,08,13,04,40,17.50
2016,08,13,04,41,17.50
2016,08,13,04,42,17.40
2016,08,13,04,43,17.40
2016,08,13,04,44,17.40
2016,08,13,04,45,17.40
2016,08,13,04,46,17.40
2016,08,13,04,47,17.40
2016,08,13,04,48,17.30
2016,08,13,04,49,17.30
2016,08,13,04,50,17.30
2016,08,13,04,51,17.30
2016,08,13,04,52,17.30
2016,08,13,04,53,17.30
2016,08,13,04,54,17.30
2016,08,13,04,55,17.20
2016,08,13,04,56,17.20
2016,08,13,04,57,17.20
2016,08,13,04,58,17.20
2016,08,13,04,59,17.20
2016,08,13,05,00,17.10
2016,08,13,05,01,17.10
2016,08,13,05,02,17.10
2016,08,13,05,03,17.10
2016,08,13,05,04,17.10
2016,08,13,05,05,17.10
2016,08,13,05,06,17.10
2016,08,13,05,07,17.00
2016,08,13,05,08,17.00
2016,08,13,05,09,17.00
2016,08,13,05,10,17.00
2016,08,13,05,11,16.90
2016,08,13,05,12,16.90
2016,08,13,05,13,16.90
2016,08,13,05,14,16.90
2016,08,13,05,15,16.90
2016,08,13,05,16,16.90
2016,08,13,05,17,16.90
2016,08,13,05,18,16.90
2016,08,13,05,19,16.90
2016,08,13,05,20,16.90
2016,08,13,05,21,16.90
2016,08,13,05,22,16.90
2016,08,13,05,23,17.00
2016,08,13,05,24,17.00
2016,08,13,05,25,17.00
2016,08,13,05,26,17.00
2016,08,13,05,27,17.00
2016,08,13,05,28,17.00
2016,08,13,05,29,17.00
2016,08,13,05,30,17.00
2016,08,13,05,31,16.90
2016,08,13,05,32,16.90
2016,08,13,05,33,16.90
2016,08,13,05,34,16.90
2016,08,13,05,35,16.90
2016,08,13,05,36,16.90
2016,08,13,05,37,16.90
2016,08,13,05,38,16.80
2016,08,13,05,39,16.80
2016,08,13,05,40,16.80
2016,08,13,05,41,16.80
2016,08,13,05,42,16.80
2016,08,13,05,43,16.80
2016,08,13,05,44,16.80
2016,08,13,05,45,16.80
2016,08,13,05,46,16.80
2016,08,13,05,47,16.80
2016,08,13,05,48,16.70
2016,08,13,05,49,16.70
2016,08,13,05,50,16.70
2016,08,13,05,51,16.70
2016,08,13,05,52,16.70
2016,08,13,05,53,16.70
2016,08,13,05,54,16.70
2016,08,13,05,55,16.70
2016,08,13,05,56,16.70
2016,08,13,05,57,16.70
2016,08,13,05,58,16.60
2016,08,13,05,59,16.60
2016,08,13,06,00,16.60
2016,08,13,06,01,16.60
2016,08,13,06,02,16.60
2016,08,13,06,03,16.60
2016,08,13,06,04,16.60
2016,08,13,06,05,16.50
2016,08,13,06,06,16.50
2016,08,13,06,07,16.50
2016,08,13,06,08,16.50
2016,08,13,06,09,16.50
2016,08,13,06,10,16.50
2016,08,13,06,11,16.50
2016,08,13,06,12,16.50
2016,08,13,06,13,16.50
2016,08,13,06,14,16.40
2016,08,13,06,15,16.40
2016,08,13,06,16,16.40
2016,08,13,06,17,16.40
2016,08,13,06,18,16.40
2016,08,13,06,19,16.40
2016,08,13,06,20,16.40
2016,08,13,06,21,16.40
2016,08,13,06,22,16.40
2016,08,13,06,23,16.40
2016,08,13,06,24,16.40
2016,08,13,06,25,16.40
2016,08,13,06,26,16.30
2016,08,13,06,27,16.30
2016,08,13,06,28,16.30
2016,08,13,06,29,16.30
2016,08,13,06,30,16.30
2016,08,13,06,31,16.30
2016,08,13,06,32,16.30
2016,08,13,06,33,16.30
2016,08,13,06,34,16.30
2016,08,13,06,35,16.30
2016,08,13,06,36,16.30
2016,08,13,06,37,16.20
2016,08,13,06,38,16.20
2016,08,13,06,39,16.20
2016,08,13,06,40,16.20
2016,08,13,06,41,16.20
2016,08,13,06,42,16.20
2016,08,13,06,43,16.20
2016,08,13,06,44,16.20
2016,08,13,06,45,16.20
2016,08,13,06,46,16.20
2016,08,13,06,47,16.30
2016,08,13,06,48,16.30
2016,08,13,06,49,16.30
2016,08,13,06,50,16.30
2016,08,13,06,51,16.30
2016,08,13,06,52,16.30
2016,08,13,06,53,16.30
2016,08,13,06,54,16.30
2016,08,13,06,55,16.30
2016,08,13,06,56,16.30
2016,08,13,06,57,16.30
2016,08,13,06,58,16.30
2016,08,13,06,59,16.30
2016,08,13,07,00,16.30
2016,08,13,07,01,16.30
2016,08,13,07,02,16.30
2016,08,13,07,03,16.30
2016,08,13,07,04,16.30
2016,08,13,07,05,16.30
2016,08,13,07,06,16.40
2016,08,13,07,07,16.40
2016,08,13,07,08,16.40
2016,08,13,07,09,16.40
2016,08,13,07,10,16.40
2016,08,13,07,11,16.40
2016,08,13,07,12,16.40
2016,08,13,07,13,16.40
2016,08,13,07,14,16.50
2016,08,13,07,15,16.50
2016,08,13,07,16,16.50
2016,08,13,07,17,16.60
2016,08,13,07,18,16.60
2016,08,13,07,19,16.60
2016,08,13,07,20,16.60
2016,08,13,07,21,16.60
2016,08,13,07,22,16.60
2016,08,13,07,23,16.70
2016,08,13,07,24,16.70
2016,08,13,07,25,16.70
2016,08,13,07,26,16.70
2016,08,13,07,27,16.70
2016,08,13,07,28,16.80
2016,08,13,07,29,16.80
2016,08,13,07,30,16.80
2016,08,13,07,31,16.80
2016,08,13,07,32,16.80
2016,08,13,07,33,16.90
2016,08,13,07,34,16.90
2016,08,13,07,35,16.90
2016,08,13,07,36,16.90
2016,08,13,07,37,17.00
2016,08,13,07,38,17.00
2016,08,13,07,39,17.00
2016,08,13,07,40,17.00
2016,08,13,07,41,17.10
2016,08,13,07,42,17.10
2016,08,13,07,43,17.10
2016,08,13,07,44,17.10
2016,08,13,07,45,17.10
2016,08,13,07,46,17.10
2016,08,13,07,47,17.20
2016,08,13,07,48,17.20
2016,08,13,07,49,17.20
2016,08,13,07,50,17.20
2016,08,13,07,51,17.20
2016,08,13,07,52,17.30
2016,08,13,07,53,17.30
2016,08,13,07,54,17.30
2016,08,13,07,55,17.30
2016,08,13,07,56,17.40
2016,08,13,07,57,17.40
2016,08,13,07,58,17.40
2016,08,13,07,59,17.50
2016,08,13,08,00,17.50
2016,08,13,08,01,17.60
2016,08,13,08,02,17.70
2016,08,13,08,03,17.70
2016,08,13,08,04,17.80
2016,08,13,08,05,17.80
2016,08,13,08,06,17.90
2016,08,13,08,07,17.90
2016,08,13,08,08,18.00
2016,08,13,08,09,18.10
2016,08,13,08,10,18.10
2016,08,13,08,11,18.10
2016,08,13,08,12,18.20
2016,08,13,08,13,18.20
2016,08,13,08,14,18.30
2016,08,13,08,15,18.30
2016,08,13,08,16,18.30
2016,08,13,08,17,18.40
2016,08,13,08,18,18.40
2016,08,13,08,19,18.40
2016,08,13,08,20,18.50
2016,08,13,08,21,18.50
2016,08,13,08,22,18.60
2016,08,13,08,23,18.60
2016,08,13,08,24,18.70
2016,08,13,08,25,18.70
2016,08,13,08,26,18.80
2016,08,13,08,27,18.80
2016,08,13,08,28,18.90
2016,08,13,08,29,18.90
2016,08,13,08,30,19.00
2016,08,13,08,31,19.00
2016,08,13,08,32,19.10
2016,08,13,08,33,19.20
2016,08,13,08,34,19.20
2016,08,13,08,35,19.30
2016,08,13,08,36,19.40
2016,08,13,08,37,19.40
2016,08,13,08,38,19.50
2016,08,13,08,39,19.50
2016,08,13,08,40,19.60
2016,08,13,08,41,19.70
2016,08,13,08,42,19.70
2016,08,13,08,43,19.80
2016,08,13,08,44,19.80
2016,08,13,08,45,19.90
2016,08,13,08,46,19.90
2016,08,13,08,47,20.00
2016,08,13,08,48,20.00
2016,08,13,08,49,20.10
2016,08,13,08,50,20.10
2016,08,13,08,51,20.20
2016,08,13,08,52,20.30
2016,08,13,08,53,20.30
2016,08,13,08,54,20.40
2016,08,13,08,55,20.50
2016,08,13,08,56,20.50
2016,08,13,08,57,20.60
2016,08,13,08,58,20.70
2016,08,13,08,59,20.70
2016,08,13,09,00,20.80
2016,08,13,09,01,20.90
2016,08,13,09,02,20.90
2016,08,13,09,03,21.00
2016,08,13,09,04,21.10
2016,08,13,09,05,21.10
2016,08,13,09,06,21.20
2016,08,13,09,07,21.30
2016,08,13,09,08,21.30
2016,08,13,09,09,21.40
2016,08,13,09,10,21.50
2016,08,13,09,11,21.50
2016,08,13,09,12,21.60
2016,08,13,09,13,21.70
2016,08,13,09,14,21.70
2016,08,13,09,15,21.80
2016,08,13,09,16,21.80
2016,08,13,09,17,21.80
2016,08,13,09,18,21.80
2016,08,13,09,19,21.90
2016,08,13,09,20,21.90
2016,08,13,09,21,21.90
2016,08,13,09,22,22.00
2016,08,13,09,23,22.00
2016,08,13,09,24,22.10
2016,08,13,09,25,22.10
2016,08,13,09,26,22.10
2016,08,13,09,27,22.10
2016,08,13,09,28,22.20
2016,08,13,09,29,22.20
2016,08,13,09,30,22.20
2016,08,13,09,31,22.20
2016,08,13,09,32,22.20
2016,08,13,09,33,22.30
2016,08,13,09,34,22.30
2016,08,13,09,35,22.30
2016,08,13,09,36,22.30
2016,08,13,09,37,22.30
2016,08,13,09,38,22.40
2016,08,13,09,39,22.40
2016,08,13,09,40,22.40
2016,08,13,09,41,22.40
2016,08,13,09,42,22.50
2016,08,13,09,43,22.50
2016,08,13,09,44,22.60
2016,08,13,09,45,22.60
2016,08,13,09,46,22.70
2016,08,13,09,47,22.70
2016,08,13,09,48,22.80
2016,08,13,09,49,22.80
2016,08,13,09,50,22.90
2016,08,13,09,51,22.90
2016,08,13,09,52,23.00
2016,08,13,09,53,23.00
2016,08,13,09,54,23.10
2016,08,13,09,55,23.10
2016,08,13,09,56,23.10
2016,08,13,09,57,23.20
2016,08,13,09,58,23.20
2016,08,13,09,59,23.30
2016,08,13,10,00,23.30
2016,08,13,10,01,23.30
2016,08,13,10,02,23.30
2016,08,13,10,03,23.30
2016,08,13,10,04,23.30
2016,08,13,10,05,23.40
2016,08,13,10,06,23.40
2016,08,13,10,07,23.40
2016,08,13,10,08,23.40
2016,08,13,10,09,23.50
2016,08,13,10,10,23.50
2016,08,13,10,11,23.60
2016,08,13,10,12,23.70
2016,08,13,10,13,23.70
2016,08,13,10,14,23.80
2016,08,13,10,15,23.80
2016,08,13,10,16,23.80
2016,08,13,10,17,23.80
2016,08,13,10,18,23.90
2016,08,13,10,19,23.90
2016,08,13,10,20,23.90
2016,08,13,10,21,24.00
2016,08,13,10,22,24.00
2016,08,13,10,23,24.10
2016,08,13,10,24,24.10
2016,08,13,10,25,24.20
2016,08,13,10,26,24.30
2016,08,13,10,27,24.30
2016,08,13,10,28,24.40
2016,08,13,10,29,24.50
2016,08,13,10,30,24.50
2016,08,13,10,31,24.60
2016,08,13,10,32,24.60
2016,08,13,10,33,24.70
2016,08,13,10,34,24.70
2016,08,13,10,35,24.70
2016,08,13,10,36,24.80
2016,08,13,10,37,24.80
2016,08,13,10,38,24.80
2016,08,13,10,39,24.90
2016,08,13,10,40,25.00
2016,08,13,10,41,25.10
2016,08,13,10,42,25.20
2016,08,13,10,43,25.20
2016,08,13,10,44,25.30
2016,08,13,10,45,25.30
2016,08,13,10,46,25.40
2016,08,13,10,47,25.40
2016,08,13,10,48,25.40
2016,08,13,10,49,25.40
2016,08,13,10,50,25.40
2016,08,13,10,51,25.40
2016,08,13,10,52,25.40
2016,08,13,10,53,25.50
2016,08,13,10,54,25.50
2016,08,13,10,55,25.40
2016,08,13,10,56,25.40
2016,08,13,10,57,25.40
2016,08,13,10,58,25.40
2016,08,13,10,59,25.50
2016,08,13,11,00,25.50
2016,08,13,11,01,25.60
2016,08,13,11,02,25.70
2016,08,13,11,03,25.80
2016,08,13,11,04,25.90
2016,08,13,11,05,25.90
2016,08,13,11,06,26.00
2016,08,13,11,07,26.10
2016,08,13,11,08,26.20
2016,08,13,11,09,26.30
2016,08,13,11,10,26.40
2016,08,13,11,11,26.50
2016,08,13,11,12,26.60
2016,08,13,11,13,26.60
2016,08,13,11,14,26.70
2016,08,13,11,15,26.70
2016,08,13,11,16,26.80
2016,08,13,11,17,26.80
2016,08,13,11,18,26.80
2016,08,13,11,19,26.90
2016,08,13,11,20,26.90
2016,08,13,11,21,26.90
2016,08,13,11,22,26.90
2016,08,13,11,23,26.90
2016,08,13,11,24,26.80
2016,08,13,11,25,26.80
2016,08,13,11,26,26.70
2016,08,13,11,27,26.70
2016,08,13,11,28,26.60
2016,08,13,11,29,26.60
2016,08,13,11,30,26.60
2016,08,13,11,31,26.50
2016,08,13,11,32,26.50
2016,08,13,11,33,26.50
2016,08,13,11,34,26.50
2016,08,13,11,35,26.50
2016,08,13,11,36,26.60
2016,08,13,11,37,26.60
2016,08,13,11,38,26.70
2016,08,13,11,39,26.80
2016,08,13,11,40,26.90
2016,08,13,11,41,27.00
2016,08,13,11,42,27.00
2016,08,13,11,43,27.10
2016,08,13,11,44,27.20
2016,08,13,11,45,27.30
2016,08,13,11,46,27.30
2016,08,13,11,47,27.30
2016,08,13,11,48,27.30
2016,08,13,11,49,27.40
2016,08,13,11,50,27.40
2016,08,13,11,51,27.40
2016,08,13,11,52,27.50
2016,08,13,11,53,27.50
2016,08,13,11,54,27.60
2016,08,13,11,55,27.60
2016,08,13,11,56,27.70
2016,08,13,11,57,27.70
2016,08,13,11,58,27.80
2016,08,13,11,59,27.80
2016,08,13,12,00,27.80
2016,08,13,12,01,27.80
2016,08,13,12,02,27.70
2016,08,13,12,03,27.70
2016,08,13,12,04,27.70
2016,08,13,12,05,27.80
2016,08,13,12,06,27.80
2016,08,13,12,07,27.80
2016,08,13,12,08,27.80
2016,08,13,12,09,27.80
2016,08,13,12,10,27.80
2016,08,13,12,11,27.80
2016,08,13,12,12,27.80
2016,08,13,12,13,27.80
2016,08,13,12,14,27.70
2016,08,13,12,15,27.70
2016,08,13,12,16,27.60
2016,08,13,12,17,27.60
2016,08,13,12,18,27.60
2016,08,13,12,19,27.60
2016,08,13,12,20,27.60
2016,08,13,12,21,27.70
2016,08,13,12,22,27.70
2016,08,13,12,23,27.80
2016,08,13,12,24,27.80
2016,08,13,12,25,27.90
2016,08,13,12,26,28.00
2016,08,13,12,27,28.00
2016,08,13,12,28,28.10
2016,08,13,12,29,28.10
2016,08,13,12,30,28.20
2016,08,13,12,31,28.20
2016,08,13,12,32,28.20
2016,08,13,12,33,28.30
2016,08,13,12,34,28.30
2016,08,13,12,35,28.30
2016,08,13,12,36,28.30
2016,08,13,12,37,28.40
2016,08,13,12,38,28.40
2016,08,13,12,39,28.40
2016,08,13,12,40,28.40
2016,08,13,12,41,28.40
2016,08,13,12,42,28.40
2016,08,13,12,43,28.40
2016,08,13,12,44,28.40
2016,08,13,12,45,28.40
2016,08,13,12,46,28.40
2016,08,13,12,47,28.40
2016,08,13,12,48,28.40
2016,08,13,12,49,28.50
2016,08,13,12,50,28.50
2016,08,13,12,51,28.40
2016,08,13,12,52,28.40
2016,08,13,12,53,28.30
2016,08,13,12,54,28.20
2016,08,13,12,55,28.10
2016,08,13,12,56,28.10
2016,08,13,12,57,28.00
2016,08,13,12,58,28.00
2016,08,13,12,59,28.00
2016,08,13,13,00,28.00
2016,08,13,13,01,28.00
2016,08,13,13,02,28.10
2016,08,13,13,03,28.10
2016,08,13,13,04,28.10
2016,08,13,13,05,28.10
2016,08,13,13,06,28.20
2016,08,13,13,07,28.20
2016,08,13,13,08,28.30
2016,08,13,13,09,28.40
2016,08,13,13,10,28.40
2016,08,13,13,11,28.40
2016,08,13,13,12,28.30
2016,08,13,13,13,28.20
2016,08,13,13,14,28.10
2016,08,13,13,15,28.10
2016,08,13,13,16,28.00
2016,08,13,13,17,28.00
2016,08,13,13,18,27.90
2016,08,13,13,19,27.90
2016,08,13,13,20,27.80
2016,08,13,13,21,27.80
2016,08,13,13,22,27.90
2016,08,13,13,23,27.90
2016,08,13,13,24,28.00
2016,08,13,13,25,28.00
2016,08,13,13,26,28.10
2016,08,13,13,27,28.10
2016,08,13,13,28,28.20
2016,08,13,13,29,28.30
2016,08,13,13,30,28.30
2016,08,13,13,31,28.30
2016,08,13,13,32,28.40
2016,08,13,13,33,28.40
2016,08,13,13,34,28.40
2016,08,13,13,35,28.30
2016,08,13,13,36,28.30
2016,08,13,13,37,28.30
2016,08,13,13,38,28.40
2016,08,13,13,39,28.40
2016,08,13,13,40,28.40
2016,08,13,13,41,28.50
2016,08,13,13,42,28.50
2016,08,13,13,43,28.60
2016,08,13,13,44,28.60
2016,08,13,13,45,28.60
2016,08,13,13,46,28.70
2016,08,13,13,47,28.70
2016,08,13,13,48,28.60
2016,08,13,13,49,28.60
2016,08,13,13,50,28.60
2016,08,13,13,51,28.60
2016,08,13,13,52,28.50
2016,08,13,13,53,28.50
2016,08,13,13,54,28.40
2016,08,13,13,55,28.30
2016,08,13,13,56,28.30
2016,08,13,13,57,28.40
2016,08,13,13,58,28.40
2016,08,13,13,59,28.40
2016,08,13,14,00,28.30
2016,08,13,14,01,28.20
2016,08,13,14,02,28.20
2016,08,13,14,03,28.20
2016,08,13,14,04,28.20
2016,08,13,14,05,28.10
2016,08,13,14,06,28.10
2016,08,13,14,07,28.00
2016,08,13,14,08,28.00
2016,08,13,14,09,27.90
2016,08,13,14,10,27.80
2016,08,13,14,11,27.80
2016,08,13,14,12,27.80
2016,08,13,14,13,27.80
2016,08,13,14,14,27.90
2016,08,13,14,15,28.00
2016,08,13,14,16,28.10
2016,08,13,14,17,28.20
2016,08,13,14,18,28.30
2016,08,13,14,19,28.40
2016,08,13,14,20,28.40
2016,08,13,14,21,28.60
2016,08,13,14,22,28.60
2016,08,13,14,23,28.70
2016,08,13,14,24,28.70
2016,08,13,14,25,28.70
2016,08,13,14,26,28.80
2016,08,13,14,27,28.80
2016,08,13,14,28,28.80
2016,08,13,14,29,28.80
2016,08,13,14,30,28.90
2016,08,13,14,31,28.90
2016,08,13,14,32,28.90
2016,08,13,14,33,29.00
2016,08,13,14,34,29.00
2016,08,13,14,35,28.90
2016,08,13,14,36,28.90
2016,08,13,14,37,28.80
2016,08,13,14,38,28.80
2016,08,13,14,39,28.70
2016,08,13,14,40,28.70
2016,08,13,14,41,28.70
2016,08,13,14,42,28.80
2016,08,13,14,43,28.80
2016,08,13,14,44,28.70
2016,08,13,14,45,28.70
2016,08,13,14,46,28.70
2016,08,13,14,47,28.70
2016,08,13,14,48,28.70
2016,08,13,14,49,28.70
2016,08,13,14,50,28.80
2016,08,13,14,51,28.80
2016,08,13,14,52,28.80
2016,08,13,14,53,28.80
2016,08,13,14,54,28.90
2016,08,13,14,55,28.90
2016,08,13,14,56,28.90
2016,08,13,14,57,28.90
2016,08,13,14,58,29.00
2016,08,13,14,59,29.00
2016,08,13,15,00,29.10
2016,08,13,15,01,29.10
2016,08,13,15,02,29.20
2016,08,13,15,03,29.10
2016,08,13,15,04,29.10
2016,08,13,15,05,29.00
2016,08,13,15,06,29.00
2016,08,13,15,07,28.90
2016,08,13,15,08,29.00
2016,08,13,15,09,29.00
2016,08,13,15,10,29.10
2016,08,13,15,11,29.10
2016,08,13,15,12,29.20
2016,08,13,15,13,29.30
2016,08,13,15,14,29.40
2016,08,13,15,15,29.40
2016,08,13,15,16,29.50
2016,08,13,15,17,29.50
2016,08,13,15,18,29.40
2016,08,13,15,19,29.30
2016,08,13,15,20,29.20
2016,08,13,15,21,29.10
2016,08,13,15,22,29.10
2016,08,13,15,23,29.00
2016,08,13,15,24,29.00
2016,08,13,15,25,29.00
2016,08,13,15,26,29.00
2016,08,13,15,27,29.10
2016,08,13,15,28,29.10
2016,08,13,15,29,29.10
2016,08,13,15,30,29.10
2016,08,13,15,31,29.00
2016,08,13,15,32,28.90
2016,08,13,15,33,28.90
2016,08,13,15,34,28.90
2016,08,13,15,35,28.80
2016,08,13,15,36,28.80
2016,08,13,15,37,28.80
2016,08,13,15,38,28.80
2016,08,13,15,39,28.80
2016,08,13,15,40,28.80
2016,08,13,15,41,28.80
2016,08,13,15,42,28.90
2016,08,13,15,43,28.90
2016,08,13,15,44,28.90
2016,08,13,15,45,28.90
2016,08,13,15,46,28.90
2016,08,13,15,47,28.80
2016,08,13,15,48,28.80
2016,08,13,15,49,28.70
2016,08,13,15,50,28.70
2016,08,13,15,51,28.70
2016,08,13,15,52,28.60
2016,08,13,15,53,28.60
2016,08,13,15,54,28.60
2016,08,13,15,55,28.60
2016,08,13,15,56,28.60
2016,08,13,15,57,28.60
2016,08,13,15,58,28.60
2016,08,13,15,59,28.60
2016,08,13,16,00,28.60
2016,08,13,16,01,28.50
2016,08,13,16,02,28.50
2016,08,13,16,03,28.50
2016,08,13,16,04,28.40
2016,08,13,16,05,28.50
2016,08,13,16,06,28.50
2016,08,13,16,07,28.50
2016,08,13,16,08,28.50
2016,08,13,16,09,28.50
2016,08,13,16,10,28.60
2016,08,13,16,11,28.60
2016,08,13,16,12,28.70
2016,08,13,16,13,28.70
2016,08,13,16,14,28.70
2016,08,13,16,15,28.80
2016,08,13,16,16,28.70
2016,08,13,16,17,28.60
2016,08,13,16,18,28.50
2016,08,13,16,19,28.40
2016,08,13,16,20,28.40
2016,08,13,16,21,28.30
2016,08,13,16,22,28.20
2016,08,13,16,23,28.20
2016,08,13,16,24,28.10
2016,08,13,16,25,28.10
2016,08,13,16,26,28.20
2016,08,13,16,27,28.20
2016,08,13,16,28,28.20
2016,08,13,16,29,28.20
2016,08,13,16,30,28.20
2016,08,13,16,31,28.20
2016,08,13,16,32,28.30
2016,08,13,16,33,28.30
2016,08,13,16,34,28.30
2016,08,13,16,35,28.20
2016,08,13,16,36,28.20
2016,08,13,16,37,28.30
2016,08,13,16,38,28.30
2016,08,13,16,39,28.30
2016,08,13,16,40,28.40
2016,08,13,16,41,28.40
2016,08,13,16,42,28.40
2016,08,13,16,43,28.50
2016,08,13,16,44,28.50
2016,08,13,16,45,28.50
2016,08,13,16,46,28.60
2016,08,13,16,47,28.60
2016,08,13,16,48,28.60
2016,08,13,16,49,28.70
2016,08,13,16,50,28.70
2016,08,13,16,51,28.70
2016,08,13,16,52,28.70
2016,08,13,16,53,28.80
2016,08,13,16,54,28.80
2016,08,13,16,55,28.80
2016,08,13,16,56,28.80
2016,08,13,16,57,28.80
2016,08,13,16,58,28.80
2016,08,13,16,59,28.80
2016,08,13,17,00,28.80
2016,08,13,17,01,28.80
2016,08,13,17,02,28.70
2016,08,13,17,03,28.70
2016,08,13,17,04,28.70
2016,08,13,17,05,28.60
2016,08,13,17,06,28.60
2016,08,13,17,07,28.50
2016,08,13,17,08,28.50
2016,08,13,17,09,28.40
2016,08,13,17,10,28.40
2016,08,13,17,11,28.30
2016,08,13,17,12,28.30
2016,08,13,17,13,28.30
2016,08,13,17,14,28.30
2016,08,13,17,15,28.30
2016,08,13,17,16,28.30
2016,08,13,17,17,28.30
2016,08,13,17,18,28.30
2016,08,13,17,19,28.30